Weather in Goch

Germany     51°40′30″N   6°09′05″E
temp.,
°C
wind,
m/s
gust,
m/s
humid.,
%
clouds,
%
prec.,
mm/h
press.,
hPa
HPBL,
m
20 april, tue
tue2023:00+8e228528 0.1 101912
02:00+6ene22875 0.1 101914
05:00+6ne22877 0.0 101912
08:00+8ne1282100 0.0 101943
11:00+13e22685 0.0 1018648
14:00+17ese125371 0.1 10171711
17:00+15nw2262100 0.0 101646
20:00+13nnw357527 0.1 1016110
21 april, wed
wed2123:00+9nnw35875 0.0 101771
02:00+7ne33865 0.0 101727
05:00+6nne338153 0.0 101632
08:00+8nne2575100 0.0 1017157
11:00+9n3573100 0.0 1018299
14:00+12n456696 0.0 1019918
17:00+11n7768100 0.3 10191142
20:00+8n610656 0.3 1020581
22 april, thu
thu2223:00+4nne4107097 0.0 1023337
02:00+1n33775 0.0 102448
05:00+1nnw2274100 0.0 102423
08:00+3nw257380 0.0 1025152
11:00+9nnw5758100 0.0 10261535
14:00+11nnw5649100 0.0 10261757
17:00+11nnw665011 0.0 10251711
20:00+8nnw59695 0.0 1027320
23 april, fri
fri2323:00+3nnw37901 0.0 1028121
02:00+2nw22935 0.0 102931
05:00+2wnw22945 0.0 102930
08:00+4nw24905 0.0 1030151
11:00+10nnw456459 0.0 10301349
14:00+13n355016 0.1 10301748
17:00+13n55495 0.0 10291766
20:00+9nne36718 0.0 1029127
24 april, sat
sat2423:00+5nne38864 0.0 1031141
02:00+3ne33905 0.0 103052
05:00+2nne22895 0.0 103020
08:00+4n238155 0.0 1031130
11:00+9n4567100 0.0 10301019
14:00+10n4669100 0.0 1030985
17:00+11nne466577 0.1 10291265
20:00+9n587513 0.2 1029389